US12 CYXU-CYXU

Flight info

Callsign US12
Flight time N/A
Altitude 1900
Route VFR CIRCUITS
Aircraft C208

Departure

Time 2026-05-08 01:02
Airport London International Airport (CYXU)

Arrival

Time N/A
Airport London International Airport (CYXU)
Time Latitude Longitude Altitude Speed Heading
2026-05-08 00:52 43.03572 -81.16431 910 ft 0 kts 333°
2026-05-08 00:54 43.03602 -81.16426 911 ft 8 kts 46°
2026-05-08 00:54 43.03628 -81.16270 910 ft 23 kts 77°
2026-05-08 00:54 43.03656 -81.16071 906 ft 14 kts 79°
2026-05-08 00:54 43.03674 -81.15940 905 ft 7 kts 78°
2026-05-08 00:55 43.03688 -81.15854 904 ft 16 kts 79°
2026-05-08 00:55 43.03693 -81.15816 903 ft 0 kts 81°
2026-05-08 00:56 43.03688 -81.15671 903 ft 24 kts 138°
2026-05-08 00:56 43.03591 -81.15556 903 ft 11 kts 137°
2026-05-08 00:56 43.03508 -81.15458 904 ft 19 kts 139°
2026-05-08 00:57 43.03405 -81.15331 905 ft 22 kts 139°
2026-05-08 00:57 43.03284 -81.15190 905 ft 23 kts 140°
2026-05-08 00:57 43.03210 -81.15102 903 ft 13 kts 139°
2026-05-08 00:57 43.03110 -81.14977 901 ft 23 kts 137°
2026-05-08 00:58 43.02985 -81.14833 899 ft 19 kts 143°
2026-05-08 00:58 43.02939 -81.14780 900 ft 4 kts 134°
2026-05-08 00:58 43.02880 -81.14701 901 ft 14 kts 136°
2026-05-08 00:58 43.02811 -81.14621 901 ft 24 kts 138°
2026-05-08 00:59 43.02673 -81.14454 904 ft 27 kts 138°
2026-05-08 00:59 43.02529 -81.14279 901 ft 28 kts 138°
2026-05-08 00:59 43.02390 -81.14117 898 ft 18 kts 137°
2026-05-08 00:59 43.02313 -81.14020 899 ft 17 kts 123°
2026-05-08 01:00 43.02329 -81.13946 897 ft 10 kts 48°
2026-05-08 01:00 43.02332 -81.13942 897 ft 0 kts 48°
2026-05-08 01:01 43.02380 -81.13868 897 ft 22 kts 43°
2026-05-08 01:01 43.02435 -81.13867 898 ft 14 kts 338°
2026-05-08 01:02 43.02799 -81.14292 1017 ft 107 kts 317°
2026-05-08 01:02 43.03429 -81.15098 1391 ft 126 kts 315°
2026-05-08 01:02 43.04114 -81.15899 1858 ft 143 kts 323°
2026-05-08 01:02 43.04892 -81.16699 2330 ft 146 kts 319°
2026-05-08 01:03 43.05883 -81.16907 2772 ft 155 kts 20°
2026-05-08 01:03 43.06817 -81.16191 3284 ft 156 kts 37°
2026-05-08 01:03 43.07137 -81.14769 3728 ft 170 kts 104°
2026-05-08 01:03 43.06383 -81.13612 4142 ft 162 kts 161°
2026-05-08 01:04 43.05502 -81.12897 3695 ft 141 kts 154°
2026-05-08 01:04 43.04685 -81.12091 3480 ft 149 kts 148°
2026-05-08 01:04 43.03877 -81.11173 3284 ft 152 kts 143°
2026-05-08 01:04 43.03013 -81.10516 3196 ft 139 kts 173°
2026-05-08 01:05 43.02083 -81.09946 2699 ft 161 kts 159°
2026-05-08 01:05 43.01212 -81.09269 2558 ft 130 kts 172°
2026-05-08 01:05 43.00471 -81.09774 2200 ft 131 kts 240°
2026-05-08 01:05 43.00573 -81.10927 1824 ft 115 kts 288°
2026-05-08 01:06 43.00934 -81.11849 1430 ft 99 kts 309°
2026-05-08 01:06 43.01335 -81.12479 1251 ft 88 kts 314°
2026-05-08 01:06 43.01792 -81.13073 1067 ft 92 kts 317°
2026-05-08 01:06 43.02238 -81.13607 942 ft 81 kts 319°
2026-05-08 01:07 43.02606 -81.14046 901 ft 69 kts 317°
2026-05-08 01:07 43.03109 -81.14655 1202 ft 116 kts 319°
2026-05-08 01:07 43.03761 -81.15456 1521 ft 143 kts 316°
2026-05-08 01:07 43.04557 -81.16345 1800 ft 155 kts 319°
2026-05-08 01:08 43.05563 -81.16623 2112 ft 167 kts 27°
2026-05-08 01:08 43.06378 -81.15492 2470 ft 169 kts 69°
2026-05-08 01:08 43.05980 -81.13973 2515 ft 175 kts 125°
2026-05-08 01:08 43.05341 -81.12689 2472 ft 152 kts 130°
2026-05-08 01:09 43.04716 -81.11575 2588 ft 145 kts 133°
2026-05-08 01:09 43.04010 -81.10447 2554 ft 156 kts 136°
2026-05-08 01:09 43.03096 -81.09714 2377 ft 154 kts 178°
2026-05-08 01:09 43.02174 -81.10223 2173 ft 143 kts 232°
2026-05-08 01:10 43.01658 -81.11187 1997 ft 116 kts 239°
2026-05-08 01:10 43.01458 -81.12225 1458 ft 120 kts 285°
2026-05-08 01:10 43.01881 -81.13155 1103 ft 118 kts 314°
2026-05-08 01:10 43.02467 -81.13882 904 ft 102 kts 320°
2026-05-08 01:11 43.02966 -81.14492 1076 ft 108 kts 317°
2026-05-08 01:11 43.03562 -81.15210 1675 ft 120 kts 321°
2026-05-08 01:11 43.04237 -81.15973 2126 ft 139 kts 315°
2026-05-08 01:11 43.05077 -81.16728 2382 ft 157 kts 351°
2026-05-08 01:12 43.06113 -81.16064 2635 ft 167 kts 29°
2026-05-08 01:12 43.06802 -81.14814 2726 ft 188 kts 92°
2026-05-08 01:12 43.06191 -81.13256 2883 ft 185 kts 128°
2026-05-08 01:12 43.05286 -81.11941 2666 ft 196 kts 138°
2026-05-08 01:13 43.04280 -81.10768 2375 ft 169 kts 144°
2026-05-08 01:13 43.03380 -81.09944 2201 ft 150 kts 163°
2026-05-08 01:13 43.02391 -81.10122 1905 ft 138 kts 210°
2026-05-08 01:13 43.01746 -81.10989 1532 ft 123 kts 231°
2026-05-08 01:14 43.01361 -81.11825 1472 ft 96 kts 259°
2026-05-08 01:14 43.01538 -81.12719 1203 ft 115 kts 308°
2026-05-08 01:14 43.02212 -81.13598 950 ft 155 kts 316°
2026-05-08 01:14 43.02924 -81.14472 1018 ft 137 kts 316°
2026-05-08 01:15 43.03631 -81.15291 1682 ft 125 kts 313°
2026-05-08 01:15 43.04355 -81.16183 1853 ft 153 kts 333°
2026-05-08 01:15 43.05343 -81.15529 1911 ft 174 kts 31°
2026-05-08 01:15 43.05775 -81.14356 1842 ft 142 kts 108°
2026-05-08 01:16 43.05155 -81.13488 1751 ft 128 kts 149°
2026-05-08 01:16 43.04408 -81.12939 1694 ft 125 kts 147°
2026-05-08 01:16 43.03669 -81.12279 1554 ft 126 kts 141°
2026-05-08 01:16 43.02958 -81.11656 1578 ft 117 kts 149°
2026-05-08 01:17 43.02219 -81.11517 1437 ft 111 kts 217°
2026-05-08 01:17 43.01827 -81.12368 1276 ft 98 kts 238°
2026-05-08 01:17 43.01928 -81.13181 1134 ft 98 kts 307°
2026-05-08 01:17 43.02235 -81.12912 1493 ft 90 kts 137°
2026-05-08 01:18 43.01828 -81.13324 1491 ft 124 kts 297°
2026-05-08 01:18 43.02655 -81.13416 1593 ft 137 kts 37°
2026-05-08 01:18 43.02749 -81.12113 1492 ft 147 kts 98°
2026-05-08 01:18 43.02027 -81.11776 1441 ft 142 kts 215°
2026-05-08 01:19 43.01766 -81.12707 1262 ft 102 kts 283°
2026-05-08 01:19 43.02141 -81.13482 1021 ft 87 kts 308°
2026-05-08 01:19 43.02576 -81.14010 900 ft 72 kts 316°
2026-05-08 01:19 43.02976 -81.14512 1160 ft 92 kts 314°